TimeEDT,TemperatureF,Dew PointF,Humidity,Sea Level PressureIn,VisibilityMPH,Wind Direction,Wind SpeedMPH,Gust SpeedMPH,PrecipitationIn,Events,Conditions,WindDirDegrees,DateUTC
12:10 AM,60.8,55.4,82,29.95,10.0,SE,8.1,-,N/A,,Light Drizzle,140,2013-03-12 04:10:00
12:12 AM,60.8,55.4,82,29.95,10.0,SE,6.9,-,N/A,,Light Drizzle,140,2013-03-12 04:12:00
12:22 AM,60.8,55.4,82,29.94,10.0,SSE,6.9,-,N/A,Rain,Light Rain,150,2013-03-12 04:22:00
12:23 AM,60.8,55.4,82,29.94,10.0,SSE,6.9,-,N/A,,Mostly Cloudy,160,2013-03-12 04:23:00
12:25 AM,60.8,55.4,82,29.94,10.0,SSE,6.9,-,N/A,,Light Drizzle,150,2013-03-12 04:25:00
12:41 AM,59.0,57.2,94,29.93,9.0,ESE,5.8,-,N/A,,Mostly Cloudy,110,2013-03-12 04:41:00
12:58 AM,58.3,56.8,95,29.94,10.0,ESE,4.6,-,0.00,,Mostly Cloudy,120,2013-03-12 04:58:00
1:56 AM,59.0,55.4,88,29.89,10.0,East,5.8,-,N/A,Rain,Light Rain,100,2013-03-12 05:56:00
1:58 AM,59.0,55.8,89,29.90,10.0,ESE,5.8,-,N/A,Rain,Light Rain,110,2013-03-12 05:58:00
2:05 AM,59.0,55.4,88,29.89,10.0,ESE,6.9,-,N/A,,Partly Cloudy,120,2013-03-12 06:05:00
2:32 AM,59.0,55.4,88,29.90,10.0,SSE,5.8,-,N/A,Rain,Light Rain,150,2013-03-12 06:32:00
2:56 AM,59.0,57.2,94,29.88,10.0,SE,6.9,-,N/A,Rain,Light Rain,140,2013-03-12 06:56:00
2:58 AM,59.0,56.5,91,29.89,10.0,SE,5.8,-,0.00,Rain,Light Rain,140,2013-03-12 06:58:00
3:08 AM,59.0,57.2,94,29.88,10.0,SE,6.9,-,N/A,Rain,Light Rain,130,2013-03-12 07:08:00
3:10 AM,59.0,57.2,94,29.88,10.0,SE,6.9,-,N/A,Rain,Light Rain,140,2013-03-12 07:10:00
3:14 AM,59.0,57.2,94,29.87,10.0,SE,8.1,-,N/A,Rain,Light Rain,130,2013-03-12 07:14:00
3:20 AM,59.0,57.2,94,29.86,10.0,SE,6.9,-,N/A,Rain,Light Rain,130,2013-03-12 07:20:00
3:28 AM,59.0,59.0,100,29.86,10.0,SE,8.1,-,N/A,Rain,Light Rain,130,2013-03-12 07:28:00
3:42 AM,59.0,59.0,100,29.84,10.0,SE,8.1,-,N/A,Rain,Light Rain,130,2013-03-12 07:42:00
3:58 AM,58.5,58.1,99,29.86,10.0,SE,5.8,-,0.04,Rain,Light Rain,140,2013-03-12 07:58:00
4:10 AM,59.0,59.0,100,29.85,10.0,SSE,8.1,-,N/A,Rain,Light Rain,150,2013-03-12 08:10:00
4:12 AM,59.0,59.0,100,29.84,10.0,SE,6.9,-,N/A,Rain,Light Rain,140,2013-03-12 08:12:00
4:16 AM,59.0,59.0,100,29.84,9.0,SSE,8.1,-,N/A,Rain,Light Rain,150,2013-03-12 08:16:00
4:58 AM,58.8,58.5,99,29.84,8.0,SSE,8.1,-,0.11,Rain,Light Rain,150,2013-03-12 08:58:00
5:16 AM,59.0,59.0,100,29.82,10.0,SE,6.9,-,N/A,Rain,Light Rain,140,2013-03-12 09:16:00
5:22 AM,59.0,59.0,100,29.82,10.0,SE,6.9,-,N/A,Rain,Light Rain,140,2013-03-12 09:22:00
5:30 AM,59.0,59.0,100,29.82,10.0,SSE,8.1,-,N/A,Rain,Light Rain,150,2013-03-12 09:30:00
5:36 AM,59.0,59.0,100,29.82,10.0,SSE,6.9,-,N/A,Rain,Light Rain,150,2013-03-12 09:36:00
5:42 AM,59.0,59.0,100,29.82,10.0,SSE,6.9,-,N/A,Rain,Light Rain,150,2013-03-12 09:42:00
5:48 AM,59.0,59.0,100,29.82,9.0,SSE,8.1,-,N/A,Rain,Light Rain,150,2013-03-12 09:48:00
5:58 AM,59.9,59.5,99,29.84,10.0,South,8.1,-,0.08,Rain,Light Rain,170,2013-03-12 09:58:00
6:04 AM,60.8,59.0,94,29.83,10.0,SSE,8.1,-,N/A,Rain,Light Rain,160,2013-03-12 10:04:00
6:16 AM,60.8,60.8,100,29.82,9.0,SSE,10.4,-,N/A,Rain,Light Rain,160,2013-03-12 10:16:00
6:24 AM,60.8,60.8,100,29.82,8.0,SSE,8.1,17.3,N/A,Rain,Light Rain,160,2013-03-12 10:24:00
6:48 AM,60.8,60.8,100,29.82,9.0,South,12.7,18.4,N/A,Rain,Light Rain,180,2013-03-12 10:48:00
6:50 AM,62.6,60.8,94,29.82,9.0,South,8.1,18.4,N/A,Rain,Light Rain,180,2013-03-12 10:50:00
6:58 AM,61.7,61.3,99,29.82,10.0,South,12.7,21.9,0.09,Rain,Light Rain,170,2013-03-12 10:58:00
7:00 AM,62.6,60.8,94,29.82,10.0,South,12.7,21.9,N/A,Rain,Light Rain,180,2013-03-12 11:00:00
7:04 AM,62.6,60.8,94,29.82,10.0,South,12.7,21.9,N/A,Rain,Light Rain,180,2013-03-12 11:04:00
7:26 AM,62.6,60.8,94,29.82,10.0,South,10.4,-,N/A,Rain,Light Rain,190,2013-03-12 11:26:00
7:32 AM,62.6,60.8,94,29.82,10.0,South,9.2,-,N/A,Rain,Light Rain,180,2013-03-12 11:32:00
7:42 AM,62.6,60.8,94,29.80,10.0,SSE,12.7,-,N/A,Rain,Light Rain,160,2013-03-12 11:42:00
7:50 AM,62.6,60.8,94,29.82,10.0,South,10.4,-,N/A,Rain,Light Rain,190,2013-03-12 11:50:00
7:58 AM,61.9,61.5,99,29.82,10.0,South,12.7,18.4,0.07,Rain,Light Rain,180,2013-03-12 11:58:00
8:22 AM,62.6,62.6,100,29.81,10.0,South,10.4,18.4,N/A,Rain,Light Rain,190,2013-03-12 12:22:00
8:25 AM,62.6,62.6,100,29.81,10.0,South,10.4,18.4,N/A,,Mostly Cloudy,190,2013-03-12 12:25:00
8:58 AM,62.4,62.1,99,29.83,10.0,SSW,9.2,-,0.01,,Mostly Cloudy,200,2013-03-12 12:58:00
9:00 AM,62.6,62.6,100,29.82,10.0,South,9.2,-,N/A,,Mostly Cloudy,190,2013-03-12 13:00:00
9:14 AM,62.6,62.6,100,29.82,10.0,SSW,8.1,18.4,N/A,,Mostly Cloudy,200,2013-03-12 13:14:00
9:18 AM,62.6,62.6,100,29.82,10.0,SSW,10.4,18.4,N/A,,Mostly Cloudy,210,2013-03-12 13:18:00
9:22 AM,62.6,62.6,100,29.82,10.0,SSW,10.4,-,N/A,,Mostly Cloudy,200,2013-03-12 13:22:00
9:42 AM,64.4,62.6,94,29.83,10.0,SSW,8.1,-,N/A,,Scattered Clouds,200,2013-03-12 13:42:00
9:44 AM,64.4,62.6,94,29.83,10.0,SSW,6.9,-,N/A,,Mostly Cloudy,200,2013-03-12 13:44:00
9:46 AM,64.4,62.6,94,29.82,10.0,SSW,10.4,-,N/A,,Scattered Clouds,210,2013-03-12 13:46:00
9:48 AM,64.4,62.6,94,29.82,10.0,SSW,6.9,-,N/A,,Mostly Cloudy,200,2013-03-12 13:48:00
9:50 AM,64.4,62.6,94,29.83,10.0,SSW,8.1,-,N/A,,Mostly Cloudy,200,2013-03-12 13:50:00
9:58 AM,63.9,63.1,97,29.84,10.0,SSW,6.9,-,N/A,,Scattered Clouds,210,2013-03-12 13:58:00
10:00 AM,64.4,62.6,94,29.83,10.0,SSW,8.1,-,N/A,,Mostly Cloudy,210,2013-03-12 14:00:00
10:08 AM,64.4,62.6,94,29.83,10.0,SSW,9.2,-,N/A,,Scattered Clouds,210,2013-03-12 14:08:00
10:16 AM,64.4,62.6,94,29.83,10.0,SSW,9.2,-,N/A,,Mostly Cloudy,210,2013-03-12 14:16:00
10:19 AM,64.4,62.6,94,29.83,9.0,SSW,10.4,-,N/A,Rain,Light Rain,200,2013-03-12 14:19:00
10:21 AM,64.4,62.6,94,29.83,7.0,SSW,9.2,-,N/A,Rain,Light Rain,210,2013-03-12 14:21:00
10:25 AM,64.4,62.6,94,29.83,7.0,SSW,9.2,-,N/A,Rain,Light Rain,210,2013-03-12 14:25:00
10:29 AM,64.4,62.6,94,29.83,8.0,SSW,9.2,-,N/A,Rain,Light Rain,210,2013-03-12 14:29:00
10:35 AM,64.4,62.6,94,29.82,10.0,SSW,10.4,-,N/A,Rain,Light Rain,210,2013-03-12 14:35:00
10:40 AM,64.4,62.6,94,29.83,10.0,SSW,10.4,-,N/A,,Mostly Cloudy,210,2013-03-12 14:40:00
10:48 AM,64.4,62.6,94,29.83,10.0,SSW,9.2,-,N/A,,Mostly Cloudy,210,2013-03-12 14:48:00
10:50 AM,64.4,62.6,94,29.83,10.0,SW,9.2,-,N/A,,Mostly Cloudy,220,2013-03-12 14:50:00
10:52 AM,64.4,62.6,94,29.83,10.0,SW,8.1,-,N/A,,Mostly Cloudy,220,2013-03-12 14:52:00
10:54 AM,64.4,62.6,94,29.83,10.0,SW,10.4,-,N/A,Rain,Light Rain,220,2013-03-12 14:54:00
10:58 AM,64.4,63.1,96,29.84,10.0,SSW,8.1,17.3,0.01,Rain,Light Rain,210,2013-03-12 14:58:00
11:06 AM,64.4,62.6,94,29.83,10.0,SSW,8.1,-,N/A,,Mostly Cloudy,200,2013-03-12 15:06:00
11:08 AM,64.4,62.6,94,29.83,10.0,SSW,10.4,-,N/A,,Mostly Cloudy,200,2013-03-12 15:08:00
11:10 AM,64.4,62.6,94,29.83,10.0,SSW,8.1,16.1,N/A,,Mostly Cloudy,210,2013-03-12 15:10:00
11:12 AM,64.4,62.6,94,29.83,10.0,SSW,10.4,16.1,N/A,Rain,Light Rain,210,2013-03-12 15:12:00
11:24 AM,64.4,62.6,94,29.83,10.0,SSW,10.4,17.3,N/A,Rain,Light Rain,210,2013-03-12 15:24:00
11:34 AM,64.4,62.6,94,29.83,10.0,SSW,9.2,-,N/A,Rain,Light Rain,210,2013-03-12 15:34:00
11:36 AM,64.4,62.6,94,29.83,10.0,SSW,9.2,-,N/A,Rain,Light Rain,210,2013-03-12 15:36:00
11:40 AM,64.4,62.6,94,29.83,10.0,SSW,8.1,-,N/A,Rain,Light Rain,210,2013-03-12 15:40:00
11:42 AM,64.4,62.6,94,29.83,10.0,SW,9.2,-,N/A,Rain,Light Rain,220,2013-03-12 15:42:00
11:46 AM,64.4,62.6,94,29.83,10.0,SSW,6.9,-,N/A,,Mostly Cloudy,210,2013-03-12 15:46:00
11:58 AM,64.2,63.0,96,29.84,10.0,SSW,6.9,-,0.01,,Overcast,200,2013-03-12 15:58:00
12:32 PM,64.4,62.6,94,29.82,10.0,SSW,10.4,18.4,N/A,Rain,Light Rain,210,2013-03-12 16:32:00
12:40 PM,64.4,62.6,94,29.82,9.0,SSW,10.4,17.3,N/A,Rain,Light Rain,210,2013-03-12 16:40:00
12:58 PM,64.2,63.5,98,29.83,10.0,SW,9.2,-,0.00,Rain,Light Rain,220,2013-03-12 16:58:00
12:59 PM,64.4,64.4,100,29.82,10.0,SW,10.4,-,N/A,,Overcast,230,2013-03-12 16:59:00
1:25 PM,66.2,64.4,94,29.82,10.0,SW,12.7,-,N/A,,Mostly Cloudy,230,2013-03-12 17:25:00
1:43 PM,66.2,62.6,88,29.81,10.0,SW,10.4,-,N/A,,Scattered Clouds,230,2013-03-12 17:43:00
1:47 PM,66.2,62.6,88,29.81,10.0,SW,9.2,-,N/A,,Mostly Cloudy,230,2013-03-12 17:47:00
1:53 PM,66.2,64.4,94,29.81,10.0,SW,11.5,-,N/A,,Scattered Clouds,230,2013-03-12 17:53:00
1:58 PM,67.1,63.9,89,29.81,10.0,SW,8.1,-,0.00,,Scattered Clouds,220,2013-03-12 17:58:00
2:58 PM,71.2,59.2,66,29.77,10.0,SSW,8.1,-,N/A,,Scattered Clouds,210,2013-03-12 18:58:00
3:58 PM,72.7,57.4,59,29.75,10.0,WSW,12.7,-,N/A,,Partly Cloudy,240,2013-03-12 19:58:00
4:58 PM,74.8,56.1,52,29.76,10.0,WSW,10.4,-,N/A,,Clear,250,2013-03-12 20:58:00
5:58 PM,75.0,48.9,40,29.77,10.0,West,16.1,-,N/A,,Clear,280,2013-03-12 21:58:00
6:14 PM,73.4,50.0,44,29.76,10.0,NW,12.7,-,N/A,,Clear,310,2013-03-12 22:14:00
6:58 PM,70.3,51.1,50,29.80,10.0,NW,8.1,-,N/A,,Clear,310,2013-03-12 22:58:00
7:58 PM,65.8,50.0,57,29.84,10.0,NW,10.4,-,N/A,,Clear,320,2013-03-12 23:58:00
8:58 PM,62.6,48.4,60,29.87,10.0,NNW,8.1,-,N/A,,Clear,330,2013-03-13 00:58:00
9:58 PM,60.1,37.0,42,29.90,10.0,NNW,11.5,-,N/A,,Clear,330,2013-03-13 01:58:00
10:58 PM,56.5,29.8,36,29.93,10.0,NW,10.4,-,N/A,,Clear,320,2013-03-13 02:58:00
11:58 PM,53.8,31.5,43,29.94,10.0,NNW,10.4,-,N/A,,Clear,330,2013-03-13 03:58:00